TimeCST,TemperatureF,Dew PointF,Humidity,Sea Level PressureIn,VisibilityMPH,Wind Direction,Wind SpeedMPH,Gust SpeedMPH,PrecipitationIn,Events,Conditions,WindDirDegrees,DateUTC
12:53 AM,37.0,33.1,86,30.25,10.0,Calm,Calm,-,N/A,,Clear,0,2012-11-14 06:53:00
1:53 AM,34.0,32.0,92,30.25,10.0,Calm,Calm,-,N/A,,Clear,0,2012-11-14 07:53:00
2:53 AM,36.0,32.0,86,30.25,10.0,Calm,Calm,-,N/A,,Clear,0,2012-11-14 08:53:00
3:53 AM,34.0,32.0,92,30.25,10.0,Calm,Calm,-,N/A,,Clear,0,2012-11-14 09:53:00
4:32 AM,33.8,32.0,93,30.25,10.0,NE,3.5,-,N/A,,Scattered Clouds,40,2012-11-14 10:32:00
4:43 AM,35.6,33.8,93,30.25,10.0,Calm,Calm,-,N/A,,Mostly Cloudy,0,2012-11-14 10:43:00
4:53 AM,36.0,34.0,93,30.26,10.0,Calm,Calm,-,N/A,,Overcast,0,2012-11-14 10:53:00
5:43 AM,39.2,35.6,87,30.26,10.0,NE,3.5,-,N/A,,Overcast,40,2012-11-14 11:43:00
5:53 AM,39.9,35.1,83,30.26,10.0,ENE,3.5,-,N/A,,Overcast,60,2012-11-14 11:53:00
6:53 AM,44.1,39.0,82,30.28,10.0,NE,3.5,-,N/A,,Overcast,40,2012-11-14 12:53:00
7:53 AM,48.0,43.0,83,30.29,10.0,East,5.8,-,N/A,,Overcast,80,2012-11-14 13:53:00
8:07 AM,48.2,44.6,87,30.29,10.0,East,4.6,-,N/A,,Overcast,90,2012-11-14 14:07:00
8:18 AM,50.0,44.6,82,30.29,10.0,East,6.9,-,N/A,,Overcast,80,2012-11-14 14:18:00
8:53 AM,52.0,45.0,77,30.29,10.0,East,9.2,-,N/A,,Overcast,90,2012-11-14 14:53:00
9:53 AM,55.0,46.0,72,30.28,10.0,East,6.9,-,N/A,,Overcast,80,2012-11-14 15:53:00
10:12 AM,55.4,46.4,72,30.28,10.0,ENE,5.8,-,N/A,,Overcast,70,2012-11-14 16:12:00
10:53 AM,55.9,46.9,72,30.28,10.0,NE,6.9,-,N/A,,Overcast,50,2012-11-14 16:53:00
11:53 AM,57.0,46.9,69,30.26,10.0,Variable,5.8,-,N/A,,Overcast,0,2012-11-14 17:53:00
12:53 PM,55.9,46.9,72,30.24,10.0,NE,6.9,-,N/A,,Overcast,40,2012-11-14 18:53:00
1:53 PM,55.0,46.9,74,30.24,10.0,East,3.5,-,N/A,,Overcast,80,2012-11-14 19:53:00
2:53 PM,54.0,48.0,80,30.24,10.0,ENE,4.6,-,N/A,,Overcast,70,2012-11-14 20:53:00
3:12 PM,53.6,48.2,82,30.24,10.0,NE,4.6,-,N/A,,Overcast,50,2012-11-14 21:12:00
3:49 PM,53.6,48.2,82,30.24,10.0,NE,4.6,-,N/A,,Overcast,40,2012-11-14 21:49:00
3:53 PM,54.0,48.0,80,30.24,10.0,NE,4.6,-,N/A,,Overcast,40,2012-11-14 21:53:00
4:53 PM,53.1,46.9,80,30.25,10.0,NNE,4.6,-,N/A,,Overcast,20,2012-11-14 22:53:00
5:04 PM,53.6,46.4,77,30.25,10.0,NNE,4.6,-,N/A,,Overcast,20,2012-11-14 23:04:00
5:53 PM,53.1,46.9,80,30.26,10.0,NNE,5.8,-,0.00,Rain,Light Rain,30,2012-11-14 23:53:00
6:53 PM,52.0,46.0,80,30.27,10.0,NE,3.5,-,0.00,,Overcast,50,2012-11-15 00:53:00
7:35 PM,51.8,46.4,82,30.27,10.0,NE,6.9,-,N/A,,Overcast,40,2012-11-15 01:35:00
7:53 PM,51.1,46.0,83,30.27,10.0,ENE,6.9,-,N/A,,Overcast,60,2012-11-15 01:53:00
8:53 PM,50.0,45.0,83,30.27,10.0,ENE,5.8,-,N/A,,Overcast,60,2012-11-15 02:53:00
9:03 PM,50.0,44.6,82,30.26,10.0,ENE,6.9,-,N/A,,Overcast,70,2012-11-15 03:03:00
9:13 PM,50.0,44.6,82,30.26,10.0,ENE,6.9,-,N/A,,Overcast,60,2012-11-15 03:13:00
9:53 PM,50.0,45.0,83,30.26,10.0,ENE,5.8,-,N/A,,Overcast,70,2012-11-15 03:53:00
10:53 PM,48.9,45.0,86,30.25,10.0,ENE,4.6,-,N/A,,Overcast,70,2012-11-15 04:53:00
11:53 PM,48.9,44.1,83,30.25,10.0,ENE,4.6,-,N/A,,Overcast,60,2012-11-15 05:53:00